Key West Nas /Boca Chica Field/ Airport
KNQX : now visible

Airfield :











YOU CAN JOIN US ON...

 
LOGIN :

Register | Disclaimer

   EN    FR    IT 

 









Legend :    VFR   Marginal VFR   IFR   Intensive IFR   Very Intensive IFR
Visi :
Ceiling :
>= 8 km
>= 3000ft
5 to 8 km
1000 to 3000 ft
1500m to 5 km
500 to 1000 ft
800 to 1500m
200 to 500 ft
< 800m
< 200 ft
Symbols :   Thunderstorms  Fog  Heavy snow  Heavy precipitations  Wind > 20 kt






- Airport Elevation : 6 ft


KNQX - Key West Nas /Boca Chica Field/

CURRENT METAR :
  • 101453Z 13012KT 10SM SCT022 29/23 A3010 RMK AO2 SLP192 T02890228 51014 $

EXPIRED METARs :
  • 101353Z 13012KT 10SM SCT022 28/23 A3010 RMK AO2 SLP190 T02780228
  • 101253Z 13011KT 10SM SCT020 27/22 A3008 RMK AO2 SLP184 T02670222 $

TAF TAF KNQX
Valid from the 10 at 15:00 until the 11 at 15:00 UTC


1015/1115 13014KT 9999 SCT023 QNH2998INS
BECMG 1101/1103 12007KT 9999 VCSH SCT022 QNH3001INS
TEMPO 1106/1112 6000 SHRA BKN022 T29/1019Z T23/1111Z FN20027



MET'MAP, your aeronautical weather chart ! - Copyright ORBIFLY December 2007 - Disclaimer

ORBIFLY MET'MAP TEAM :

Programming & Development : Alexandra Zaïnal
Concept & original design : Baudouin d'Aumeries
Assistance for programming : Marc-Olivier Méhu
Technical & hardware support : Manuel Goepfert

Contact : metmap@orbifly.com




SOURCES & CREDITS :

   NOAA       Earth
Advisory